User: anonymous   Login
Location: Unspecified
(0.0000°N, 0.0000°E)
Time: 07:35:16
(UTC+02:00)
Language:

Cosmos 2251 - Orbit

View from above orbital plane
View from above orbital plane
View from above satellite
View from above satellite

Ground track
Ground track

The orbit data is extracted from the following two-line orbital elements,

1 22675U 93036A   15115.80586252  .00000141  00000-0  61602-4 0  9997
2 22675 074.0405 205.7121 0024551 157.7479 338.4901 14.32419621141860
Epoch (UTC): 25 April 2015 19:20:26
Eccentricity: 0.0024551
inclination: 74.0405°
perigee height: 766 km
apogee height: 801 km
right ascension of ascending node: 205.7121°
argument of perigee: 157.7479°
revolutions per day: 14.32419621
mean anomaly at epoch: 338.4901°
orbit number at epoch: 14186

The dashed part of the orbit path shows where the satellite is in the earth's shadow,  

DLR